{"data":{"norad_id":51815,"epoch":"2026-09-19T10:36:58.236480Z","epoch_age_seconds":143620,"freshness":"FRESH","line1":"1 51815U 22017AZ  26262.44234070  .00003018  00000+0  10902-3 0  9990","line2":"2 51815  53.1600 165.2671 0001246  93.3704 266.7440 15.31689571253526","mean_motion":15.31689571,"eccentricity":0.0001246,"inclination_deg":53.16,"raan_deg":165.2671,"arg_perigee_deg":93.3704,"mean_anomaly_deg":266.744,"bstar":0.00010902,"rev_number":25352,"period_min":94.01382808005,"perigee_km":469.91770976113,"apogee_km":471.62445765559,"semimajor_km":6848.9080837084,"source":"CELESTRAK","updated_at":"2026-09-20T09:00:39.944295Z"}}